Location: Eaton Estates
(41.3089°N, 82.0057°W)
Time: 13:10:56
(UTC+00:00)

USA 308 - Pass Details

Date: 02 November 2021
Orbit: 565 x 570 km, 54.0° (Epoch: 04 December)

Event Time Altitude Azimuth Distance (km) Brightness Sun altitude
Exits shadow 09:48:33 15° 4° (N) 1,569 5.2 -25.3°
Drops below altitude 10° 09:50:26 10° 30° (NNE) 1,880 5.9 -24.9°
Sets 09:53:29 0° 53° (NE) 2,778 7.2 -24.3°
